Vorticity
2 1 -0 2 8 10 7 4 5 5 8 16 6 0 14 13 13 8 5 1 11 0
4 4 8 8 6 6 9 10 8 10 7 7 9 5 6 -3 -2 4 6 -0 14 7
7 7 9 10 9 9 3 6 8 6 7 8 8 2 14 3 -8 8 9 9 14 7
10 11 11 11 9 7 4 6 5 5 7 4 6 7 16 -2 -15 20 -2 10 7 5
20 16 13 12 9 9 9 9 8 8 6 6 6 3 3 4 -4 10 1 11 8 11
7 6 8 12 15 14 12 10 10 12 12 8 7 8 2 1 9 3 14 11 11 11
11 10 13 6 1 4 6 6 10 12 11 14 11 8 7 8 10 13 11 11 9 9
12 12 10 15 17 13 8 10 11 11 13 13 13 14 14 14 13 14 11 10 9 8
12 11 9 10 9 11 13 14 13 13 14 12 12 10 9 10 8 7 7 7 6 5
12 13 12 9 10 10 12 12 14 14 13 11 10 9 9 8 9 8 6 5 4 5
14 13 11 13 13 11 12 11 10 9 8 8 8 7 8 8 6 5 5 5 8 9
16 14 11 13 14 11 10 8 7 6 7 7 6 7 7 6 5 4 7 5 6 9
15 16 12 11 12 13 11 9 8 9 8 7 6 6 5 3 4 3 6 8 10 15
12 15 15 11 10 9 11 11 11 10 8 7 5 6 5 5 4 5 8 11 9 16
Height
3109 3110 3112 3113 3113 3113 3115 3115 3115 3116 3116 3116 3118 3117 3118 3121 3122 3122 3122 3123 3122 3122
3104 3105 3105 3106 3107 3107 3108 3109 3108 3109 3111 3112 3112 3114 3115 3115 3116 3117 3116 3115 3115 3115
3097 3098 3098 3099 3100 3100 3102 3103 3104 3104 3105 3107 3108 3109 3108 3109 3109 3109 3107 3107 3107 3106
3091 3091 3091 3092 3093 3094 3095 3096 3097 3098 3099 3100 3101 3101 3101 3102 3102 3101 3100 3100 3099 3097
3083 3083 3085 3085 3085 3087 3088 3090 3090 3092 3093 3094 3094 3094 3096 3095 3095 3095 3093 3093 3091 3089
3078 3077 3077 3077 3078 3080 3080 3081 3082 3083 3084 3085 3086 3086 3087 3087 3087 3087 3086 3083 3083 3081
3071 3071 3071 3072 3071 3072 3072 3072 3073 3074 3075 3076 3077 3078 3078 3078 3078 3078 3077 3076 3074 3073
3060 3061 3061 3061 3062 3063 3063 3063 3064 3065 3066 3068 3068 3069 3069 3069 3070 3070 3069 3067 3065 3065
3051 3050 3050 3051 3050 3052 3053 3054 3054 3055 3056 3058 3059 3061 3060 3061 3062 3062 3061 3060 3059 3058
3042 3043 3043 3043 3043 3044 3044 3045 3045 3046 3048 3050 3051 3053 3053 3054 3054 3054 3054 3053 3051 3049
3034 3034 3034 3035 3035 3035 3037 3037 3037 3039 3040 3042 3043 3044 3045 3046 3047 3046 3045 3044 3042 3040
3026 3025 3025 3026 3027 3027 3028 3029 3030 3031 3032 3034 3035 3036 3037 3038 3038 3038 3036 3034 3032 3030
3019 3018 3018 3018 3018 3019 3020 3021 3021 3023 3025 3026 3027 3028 3028 3029 3029 3028 3026 3024 3021 3019
3012 3010 3011 3010 3010 3011 3011 3011 3013 3014 3016 3017 3018 3018 3019 3019 3019 3018 3016 3014 3012 3009